TimeEST,TemperatureF,Dew PointF,Humidity,Sea Level PressureIn,VisibilityMPH,Wind Direction,Wind SpeedMPH,Gust SpeedMPH,PrecipitationIn,Events,Conditions,WindDirDegrees,DateUTC
12:29 AM,75.2,62.6,65,30.04,10.0,NE,10.4,21.9,0.00,,Mostly Cloudy,50,2011-11-08 05:29:00
12:53 AM,75.0,62.1,64,30.04,10.0,ENE,13.8,-,0.00,,Scattered Clouds,60,2011-11-08 05:53:00
1:53 AM,75.0,60.1,60,30.02,10.0,ENE,10.4,-,N/A,,Partly Cloudy,60,2011-11-08 06:53:00
2:53 AM,75.0,61.0,62,30.01,10.0,NE,8.1,-,N/A,,Mostly Cloudy,40,2011-11-08 07:53:00
3:53 AM,69.1,64.9,87,30.01,10.0,Variable,4.6,-,N/A,,Scattered Clouds,0,2011-11-08 08:53:00
5:53 AM,70.0,64.9,84,30.03,10.0,NNW,3.5,-,N/A,,Overcast,340,2011-11-08 10:53:00
6:53 AM,73.9,64.9,73,30.03,8.0,NE,11.5,23.0,0.00,Rain,Light Rain,50,2011-11-08 11:53:00
7:53 AM,75.9,61.0,60,30.04,10.0,ENE,12.7,-,0.00,,Overcast,70,2011-11-08 12:53:00
8:53 AM,78.1,62.1,58,30.05,10.0,ENE,10.4,-,N/A,,Mostly Cloudy,60,2011-11-08 13:53:00
9:53 AM,79.0,61.0,54,30.05,10.0,ENE,16.1,-,N/A,,Partly Cloudy,60,2011-11-08 14:53:00
10:53 AM,81.0,63.0,54,30.04,10.0,NE,11.5,-,N/A,,Partly Cloudy,40,2011-11-08 15:53:00
11:53 AM,80.1,63.0,56,30.02,10.0,NE,12.7,-,N/A,,Mostly Cloudy,50,2011-11-08 16:53:00
12:53 PM,80.1,63.0,56,30.01,10.0,NE,12.7,-,N/A,,Mostly Cloudy,50,2011-11-08 17:53:00
1:53 PM,75.0,66.9,76,30.00,7.0,North,12.7,-,0.00,Rain,Light Rain,360,2011-11-08 18:53:00
2:53 PM,75.0,69.1,82,29.99,10.0,NNE,8.1,-,0.03,,Mostly Cloudy,20,2011-11-08 19:53:00
3:53 PM,77.0,64.9,66,29.99,10.0,NE,11.5,-,0.00,Rain,Light Rain,50,2011-11-08 20:53:00
4:53 PM,78.1,61.0,56,29.99,10.0,NNE,15.0,21.9,0.00,,Scattered Clouds,30,2011-11-08 21:53:00
5:53 PM,75.9,59.0,56,29.99,10.0,NNE,9.2,-,N/A,,Partly Cloudy,20,2011-11-08 22:53:00
6:53 PM,75.0,61.0,62,30.00,10.0,North,5.8,-,N/A,,Clear,360,2011-11-08 23:53:00
8:53 PM,72.0,62.1,71,30.02,10.0,NNW,6.9,-,N/A,,Mostly Cloudy,340,2011-11-09 01:53:00
9:53 PM,70.0,61.0,73,30.01,10.0,NNW,5.8,-,N/A,,Clear,340,2011-11-09 02:53:00
10:53 PM,68.0,60.1,76,30.00,10.0,North,4.6,-,N/A,,Clear,350,2011-11-09 03:53:00
11:44 PM,71.6,64.4,78,29.98,10.0,North,12.7,-,0.00,Rain,Light Rain,360,2011-11-09 04:44:00